Погода в Напасе

Погода в Напасе : погода сейчас, прогноз погоды и архив. Всё, что Вы хотите узнать о погоде в Напасе!

Хотите узнать прогноз погоды в Напасе? Тогда Вам сюда: Погода в Напасе

Поиск расширенной информации на нашем сайте:

Другие новости

Новости СМИ2

Главная страница сайта

Новости сайта

03.07.2017

Напоминаем, что на нашем специализированном сайте Метеоцентр.Азия вы можете получить высокодетализированные автоматические прогнозы погоды по пунктам России, СНГ и мира в авиационном формате (включающие направление и скорость ветра, видимость, явления погоды, количество и форму облачности, нижнюю и верхнюю границу облачности).

Рекомендуем: Самая актуальная информация запчасти лиаз в казахстане тут.

Погода в Напасе - сегодня

Время (UTC), дата Ветер
(°,м/с) 
Видим.   Явления Облачность Т
(°С)
Тd
(°С)
f(%) Тe
(°С)
Pmin
(гПа)
dP
(гПа)
Po
(мм)
O2
(г/м3)
Тmin Tmax R s Состояние
почвы
15 15.09.17 090 (В) 4000 м  слаб. ливневой дождь  10/10 180 м кучево-дожд. 
[Cb cap]
+5.6 +4.9 95 +5  1005.4  -1.7  747  294           
00 16.09.17 080 (В) 4000 м  слаб. морось  10/10 100 м 
[St]
+5.4 +4.9 97 +5  999.6  -0.7  743  293  +5.4    10    мокрая 
12 16.09.17 330 (СЗ) 4000 м  слаб. морось  10/10 210 м 
[St]
+5.4 +4.2 92 +4  1011.6  3.4  752  296    +6  0.3     
21 16.09.17 230 (ЮЗ) 4000 м  дымка  10/0 верхняя 
[Ci fib]
-0.4 -0.4 100 1016  0.7  755  305           
00 17.09.17 130 (ЮВ) 4000 м  дымка  10/10 800 м 
[Sc]
-0.4 -0.4 100 1015.2  -0.8  754  304  -1.7    0.0    мокрая 
12 17.09.17 150 (ЮВ) 5{11}  4000 м  слаб. ливневой дождь  10/10 300 м кучево-дожд. 
[Cb cap]
+7.6 +6.3 91 +6  1006.3  -2.2  748  292    +7.8     
00 18.09.17 190 (Ю) 4000 м  дымка{гроза, ливн. осадки}  10/10 210 м кучево-дожд. 
[Cb cap]
+9 +8.4 96 +10  1001.3  -0.3  744  289  +7.6      мокрая 
06 18.09.17 210 (ЮЗ) 20000 м    9/9 400 м кучево-дожд., верхняя 
[Cb cap|Ci sp]
+13.5 +9.6 77 +15  1002.4  0.2  745  284           
12 18.09.17 тихо ()   20000 м  {ливн. осадки}  10/4 600 м кучево-дожд., средняя, верхняя 
[Cb cap|Ac lent|Ci sp]
+12.4 +9.9 85 +14  1003.6  0.4  746  286    +14.1     
15 18.09.17 190 (Ю) 4000 м  дымка{ливн. осадки}  6/6 600 м 
[Sc diur, vesp]
+9.9 +8.7 92 +11  1004.2  0.4  746  289           
18 18.09.17 190 (Ю) 4000 м  дымка{ливн. осадки}  ясно 
+5 +4.8 99 +6  1004.2  -0.1  746  294           
21 18.09.17 тихо ()   4000 м  дымка  ясно 
+3.8 +3.6 99 +4  1003.9  -0.3  746  296           
00 19.09.17 тихо ()   4000 м  дымка  10/10 540 м кучево-дожд. 
[Cb cap]
+5 +4.5 97 +5  1004.4  0.5  746  295  +3    0.0    мокрая 
03 19.09.17 270 (З) 4000 м  в посл. час туман  10/10 100 м 
[St]
+7.5 +7.1 97 +8  1005.3  747  292  +2.7         
06 19.09.17 280 (З) 4000 м  дымка{туман}  10/10 210 м 
[St]
+9.5 +8.5 93 +11  1007.2  1.9  749  290           
09 19.09.17 250 (З) 20000 м    10/8 480 м кучево-дожд., средняя, верхняя 
[Cb cap|Ac trans|Ci fib]
+11.5 +8 79 +13  1008.4  1.3  749  288           
12 19.09.17 нст () 4000 м  слаб. ливневой дождь  10/9 270 м кучево-дожд., средняя, верхняя 
[Cb cap|Ac lent|Ci fib]
+10.3 +8.9 91 +11  1010  1.5  751  290    +11.7     
15 19.09.17 290 (З) 4000 м  дымка{ливн. осадки}  10/10 210 м кучево-дожд. 
[Cb cap]
+9 +8.2 95 +10  1011.7  1.7  752  292           
00 20.09.17 280 (З) 4000 м  слаб. ливневой дождь  10/10 240 м кучево-дожд. 
[Cb cap]
+8.1 +7.5 96 +8  1015.1  1.2  754  294  +8.1    0.6    мокрая 
03 20.09.17 270 (З) 4000 м  слаб. морось{ливн. осадки}  10/10 100 м 
[St]
+8.5 +8.1 97 +10  1015.6  0.5  755  294           
06 20.09.17 280 (З) 4000 м  дымка{ливн. осадки, морось}  10/10 240 м 
[St]
+9.5 +8.3 92 +11  1016.3  0.6  755  293           
09 20.09.17 210 (ЮЗ) 4000 м  слаб. морось{ливн. осадки}  10/10 240 м 
[St]
+9.3 +8.5 95 +9  1016.5  0.2  755  293           
12 20.09.17 270 (З) 4000 м  дымка{ливн. осадки, морось}  10/10 330 м кучево-дожд. 
[Cb cap]
+8.9 +8.1 95 +9  1016.3  -0.2  755  293    +9.5     
15 20.09.17 180 (Ю) 4000 м  дымка  10/10 300 м 
[St]
+8 +7.4 96 +8  1016.2  -0.1  755  294           
00 21.09.17 170 (Ю) 4000 м  дымка  10/10 100 м 
[St]
+5.9 +5.4 97 +6  1012.6  -1  752  296  +5.9        влажная 
Время (UTC), дата Ветер
(°,м/с) 
Видим.   Явления Облачность Т
(°С)
Тd
(°С)
f(%) Тe
(°С)
Pmin
(гПа)
dP
(гПа)
Po
(мм)
O2
(г/м3)
Тmin Tmax R s Состояние
почвы

Для получения пояснительной информации подведите курсор к названию столбца.

ПОГОДА в Напасе - архив

Всё, что Вы хотите узнать о погоде в Напасе - удобно и подробно!

Выберите нужную дату (начиная с 1 января 2015* года) и нажмите кнопку "Найти".
Будут отображены архивные сводки погоды по пункту Напас, начиная с указанной даты.


Отображать данные в формате CSV (для использования в таблицах Excel)


Внимание! Наш архив погоды предназначен исключительно для личного некоммерческого использования в познавательных целях. Если Вам необходимы официальные справки о состоянии погоды (для производственных, юридических, коммерческих и т.п. целей), обращайтесь в органы Росгидромета.

*Примечание: данная дата относится к архиву по метеостанциям СССР (Россия, СНГ, Балтия).
Архив по метеостанциям Зарубежной Европы и Азии (кроме Китая) хранится 10 дней, по другим регионам земного шара (Китай, Африка, Америка, Австралия, Океания) - 1 день.

Напас - район местоположения метеостанции


Название, широта, долгота, высота метеостанции:
Напас 59.9°ш. 81.9°д. 76 м над ур. моря [Российская Федерация]

Дополнительная информация

В oтличие oт бoльшинства пoгoдных сайтoв мы публикуем пoдрoбную метеoинфoрмацию в детальнoм прoфессиoнальнoм фoрмате.

Характеристики температуры и влажнoсти вoздуха измеряются на высoте 2 м в тени вдали oт зданий и деревьев.
Скoрoсть ветра измеряется на высoте 10 м (на урoвне рoста челoвека скoрoсть ветра ниже в 1.5-2 раза). Если метеoстанция нахoдится в гoрoде или в лесу, тo скoрoсть ветра занижена на 2-4 м/с пo сравнению с oткрытым местoм. Скoрoсть ветра над акватoриями крупных рек и oзёр, а также на вершинах хoлмoв на 2-5 м/с выше, чем в oбычных услoвиях.
Атмoсфернoе давление в разных тoчках местнoсти мoжет значительнo oтличаться oт давления на метеoстанции, в зависимoсти oт услoвий рельефа (при пoдъёме на 10 м давление пoнижается примернo на 1 мм рт.ст.).